Other Surface Observations
Issued by NWS

Home | Current Version | Previous Version | Text Only | Print | Product List | Glossary On
Versions: 1 2 3 4 5 6 7 8 9 10 11 12 13 14 15 16 17 18 19 20 21 22 23 24 25 26 27 28 29 30 31 32 33 34 35 36 37 38 39 40 41 42 43 44 45 46 47 48 49 50
000
SXUS52 KTAE 220319
OSOTAE
OSOTAE
North Florida/South Alabama/Southwest Georgia Weather Roundup
National Weather Service Tallahassee Florida
1100 PM EDT MON AUG 21 2017

Note: "fair" indicates few or no clouds below 12,000 feet with no
significant weather and/or obstructions to visibility.

!FLZ017-115-028-034-025-220400
...North Florida...

CITY           SKY/WX    TMP DP  RH WIND       PRES   REMARKS
TALLAHASSEE    PTCLDY    79  77  94 CALM      30.14R
APALACHICOLA   CLEAR     78  78 100 CALM      30.12R
PERRY          MOCLDY    78  74  87 CALM      30.15S
CROSS CITY     CLEAR     76  75  98 CALM      30.19R
JACKSONVILLE   PTCLDY    77  77 100 CALM      30.14R
$$

!FLZ112-006-005-002-011-220400
...Florida Panhandle...

CITY           SKY/WX    TMP DP  RH WIND       PRES   REMARKS
MARIANNA       MOCLDY    79  77  94 CALM      30.13R
BONIFAY        NOT AVBL
PANAMA CITY NW FAIR      77  75  93 N5        30.12R
TYNDALL AFB    CLEAR     78  76  92 CALM      30.13R
TYND DRONE APT FAIR      77  76  96 CALM      30.12R
DE FUNIAK SPR  FAIR      74  74  97 CALM      30.15S
EGLIN AFB      MOCLDY    79  76  92 NE3       30.12R
DESTIN         CLOUDY    82  76  81 CALM      30.12R
HURLBURT       PTCLDY    78  78 100 CALM      30.11R
CRESTVIEW      CLOUDY    75  73  93 VRB3      30.15R
PENSACOLA      CLOUDY    83  76  79 SE6       30.12R HX  91
$$

!ALZ063-066-220400
...South Alabama...

CITY           SKY/WX    TMP DP  RH WIND       PRES   REMARKS
DOTHAN         PTCLDY    78  76  93 W3        30.19R
OZARK CAIRNS   PTCLDY    75  73  93 SW3       30.15R
FT RUCKER HELI PTCLDY    75  74  97 CALM      30.15R
RUCKER HELI 3  FAIR      74  73  96 CALM      30.15R
RUCKER HELI 2  FAIR      75  74  96 CALM      30.15R
FLORALA APT      N/A    N/A N/A N/A MISG      30.16S
ANDALUSIA      PTCLDY    77  73  87 SE3       30.14S FOG
TROY           PTCLDY    75  75 100 CALM      30.16R
EUFALA         FAIR      78  77  96 CALM      30.14R FOG
MOBILE         PTCLDY    75  73  93 CALM      30.13S
$$

!GAZ120>161-220400
...Southwest and South Central Georgia...

CITY           SKY/WX    TMP DP  RH WIND       PRES   REMARKS
THOMASVILLE    FAIR      79  73  83 CALM      30.16S
BAINBRIDGE     CLEAR     79  79 100 CALM      30.15S
MOODY AFB      CLEAR     76  73  88 CALM      30.14R
VALDOSTA       PTCLDY    77  74  90 CALM      30.15R
MOULTRIE       PTCLDY    79  72  78 CALM      30.16S
BLAKELY        MOCLDY    81  73  78 CALM      30.16R
ALBANY         CLEAR     81  74  79 S3        30.17R
TIFTON         FAIR      77  76  96 CALM      30.16S
FITZGERALD     FAIR      77  75  93 CALM      30.18S
CORDELE        FAIR      83  76  81 CALM      30.17R HX  91
AMERICUS       FAIR      77  77 100 CALM      30.19R
HOMERVILLE     FAIR      75  73  94 CALM      30.16R
$$

!GMZ750-755-770-775-220400
...Coastal and Buoy Obs...

STATION/POSITION TIME  TEMP    WIND        PRES    VSBY  WAVE
                       AIR SEA DIR/SP/G                  HT/PER
                 (UTC) (F)     (DEG/KT/KT) (MB)    (MI)  (FT/S)
KEATON BEACH     0300   77      90/  6/  7 1020.1R
CEDAR KEY        0300   81      60/  9/ 12 1020.5R
C TOWER          0300   84                 1020.4S
APALACHICOLA BUO 0250   85 86   90/  6/  8 1019.7R         2/ 5
PANAMA CITY BUOY 0250   84 86  100/  8/ 10 1019.4R         2/ 6
MOBILE BUOY      0300   85 88  120/ 10/ 14 1019.4
ORANGE BCH AL BU 0250   85 88  130/  8/ 10 1019.6R         2/ 4
$$




USA.gov is the U.S. government's official web portal to all federal, state and local government web resources and services.